Albany, NY

12:52 AM EST on December 06, 2019 (GMT -0500)
Albany International

Weather History for KALB - October, 2019

Change the Weather History Date:

Saturday, October 12, 2019

  Actual Average Record
Temperature  
Mean Temperature 55 °F 51 °F  
Max Temperature 66 °F 61 °F 85 °F (1954)
Min Temperature 44 °F 41 °F 22 °F (1964)
Degree Days  
Heating Degree Days 10 14  
Month to date heating degree days 115 145  
Since 1 July heating degree days 192 312  
Cooling Degree Days 0 0  
Month to date cooling degree days 4 0  
Year to date cooling degree days 771 594  
Growing Degree Days 5 (Base 50)    
Moisture  
Dew Point 45 °F    
Average Humidity 71    
Maximum Humidity 89    
Minimum Humidity 52    
Precipitation  
Precipitation T in 0.13 in 0.75 in (2002)
Month to date precipitation 2.11 1.45  
Year to date precipitation 33.32 30.90  
Snow  
Snow 0.00 in 0.00 in T in (1904)
Month to date snowfall 0.0 0.1  
Since 1 July snowfall 0.0 0.1  
Since 1 September snowfall 0.0 0.1  
Snow Depth 0.00 in    
Sea Level Pressure  
Sea Level Pressure 30.00 in    
Wind  
Wind Speed 4 mph (WNW)    
Max Wind Speed 16 mph    
Max Gust Speed 23 mph    
Visibility 10 miles    
Events      
T = Trace of Precipitation, MM = Missing Value Source: NWS Daily Summary

Daily Weather History Graph

Daily Weather History Graph

Search for Another Location

Airport or City:

Astronomy

Oct. 12, 2019 Rise Set
Actual Time 7:04 AM EDT 6:18 PM EDT
Civil Twilight 6:36 AM EDT 6:46 PM EDT
Nautical Twilight 6:03 AM EDT 7:19 PM EDT
Astronomical Twilight 5:30 AM EDT 7:51 PM EDT
Moon 6:15 PM EDT (10/12) 5:35 AM EDT (10/12)
Length of Visible Light 12h 10m
Length of Day
11h 13m
Waxing Gibbous, 99% of the Moon is Illuminated
Oct 12
Waxing Gibbous
Oct 13
Full
Oct 21
Last Quarter
Oct 27
New
Nov 4
First Quarter

Hourly Weather History & Observations

Time (EDT) Temp. Windchill Dew Point Humidity Pressure Visibility Wind Dir Wind Speed Gust Speed Precip Events Conditions
12:51 AM 48.9 °F - 39.9 °F 71% 30.09 in 10.0 mi Calm Calm - N/A   Scattered Clouds
1:51 AM 48.0 °F - 41.0 °F 77% 30.06 in 10.0 mi ENE 3.5 mph - N/A   Scattered Clouds
2:51 AM 46.9 °F - 39.9 °F 77% 30.06 in 10.0 mi Calm Calm - N/A   Scattered Clouds
3:51 AM 46.9 °F - 41.0 °F 80% 30.03 in 10.0 mi Calm Calm - N/A   Partly Cloudy
4:51 AM 46.0 °F 44.8 °F 41.0 °F 83% 30.02 in 10.0 mi WNW 3.5 mph - N/A   Scattered Clouds
5:51 AM 45.0 °F - 39.9 °F 82% 30.01 in 10.0 mi Calm Calm - N/A   Partly Cloudy
6:51 AM 45.0 °F - 41.0 °F 86% 30.01 in 10.0 mi Calm Calm - N/A   Scattered Clouds
7:51 AM 46.0 °F - 41.0 °F 83% 30.01 in 10.0 mi Calm Calm - N/A   Partly Cloudy
8:51 AM 52.0 °F - 44.1 °F 74% 30.02 in 10.0 mi Calm Calm - N/A   Scattered Clouds
9:51 AM 55.0 °F - 44.1 °F 67% 30.02 in 10.0 mi Calm Calm - N/A   Scattered Clouds
10:51 AM 59.0 °F - 44.1 °F 58% 30.00 in 10.0 mi Calm Calm - N/A   Scattered Clouds
11:51 AM 61.0 °F - 45.0 °F 56% 29.99 in 10.0 mi Calm Calm - N/A   Mostly Cloudy
12:51 PM 61.0 °F - 46.0 °F 58% 29.97 in 10.0 mi Calm Calm - N/A   Mostly Cloudy
1:51 PM 64.0 °F - 46.0 °F 52% 29.95 in 10.0 mi NW 4.6 mph - N/A   Mostly Cloudy
2:51 PM 64.0 °F - 46.0 °F 52% 29.94 in 10.0 mi SSE 3.5 mph - N/A   Mostly Cloudy
3:51 PM 64.0 °F - 46.9 °F 54% 29.93 in 10.0 mi East 3.5 mph - N/A   Mostly Cloudy
4:51 PM 64.0 °F - 48.9 °F 58% 29.93 in 10.0 mi Calm Calm - N/A   Mostly Cloudy
5:51 PM 63.0 °F - 48.9 °F 60% 29.94 in 10.0 mi Calm Calm - N/A   Mostly Cloudy
6:51 PM 61.0 °F - 50.0 °F 67% 29.95 in 10.0 mi NW 3.5 mph - N/A   Mostly Cloudy
7:51 PM 61.0 °F - 50.0 °F 67% 29.96 in 10.0 mi West 8.1 mph - 0.00 in   Overcast
8:51 PM 60.1 °F - 50.0 °F 69% 29.98 in 10.0 mi West 11.5 mph - N/A   Overcast
9:51 PM 59.0 °F - 50.0 °F 72% 30.00 in 10.0 mi West 10.4 mph - N/A   Overcast
10:36 PM 57.9 °F - 48.0 °F 70% 30.01 in 10.0 mi NW 10.4 mph - N/A   Overcast
10:51 PM 57.0 °F - 46.0 °F 67% 30.01 in 10.0 mi WNW 10.4 mph - N/A   Overcast
11:44 PM 57.0 °F - 44.1 °F 62% 30.01 in 10.0 mi West 10.4 mph - N/A   Overcast
11:51 PM 55.9 °F - 45.0 °F 67% 30.01 in 10.0 mi West 13.8 mph - N/A   Overcast